Plattsburgh, NY

12:22 AM EST on December 16, 2019 (GMT -0500)
Plattsburgh International

Weather History for KPBG - October, 2019

Change the Weather History Date:

Wednesday, October 30, 2019

  Actual Average Record
Temperature  
Mean Temperature 55 °F 43 °F  
Max Temperature 64 °F 52 °F 75 °F (1950)
Min Temperature 46 °F 33 °F 22 °F (1959)
Degree Days  
Heating Degree Days 10 22  
Month to date heating degree days 483 523  
Since 1 July heating degree days 675 758  
Cooling Degree Days 0 0  
Month to date cooling degree days 0 0  
Year to date cooling degree days 406 345  
Growing Degree Days 5 (Base 50)    
Moisture  
Dew Point 50 °F    
Average Humidity 85    
Maximum Humidity 100    
Minimum Humidity 70    
Precipitation  
Precipitation 0.00 in - 0.59 in (2012)
Month to date precipitation 4.46 0.00  
Year to date precipitation 26.08  
Sea Level Pressure  
Sea Level Pressure 30.19 in    
Wind  
Wind Speed 3 mph ()    
Max Wind Speed 12 mph    
Max Gust Speed 15 mph    
Visibility 10.0 miles    
Events      
T = Trace of Precipitation, MM = Missing Value Source: Averaged Metar Reports

Daily Weather History Graph

Daily Weather History Graph

Search for Another Location

Airport or City:

Astronomy

Oct. 30, 2019 Rise Set
Actual Time 7:28 AM EDT 5:45 PM EDT
Civil Twilight 6:58 AM EDT 6:16 PM EDT
Nautical Twilight 6:23 AM EDT 6:50 PM EDT
Astronomical Twilight 5:50 AM EDT 7:24 PM EDT
Moon 10:13 AM EDT (10/30) 7:45 PM EDT (10/30)
Length of Visible Light 11h 17m
Length of Day
10h 17m
Waxing Crescent, 8% of the Moon is Illuminated
Oct 30
Waxing Crescent
Nov 4
First Quarter
Nov 12
Full
Nov 19
Last Quarter
Nov 26
New

Hourly Weather History & Observations

Time (EDT) Temp. Windchill Dew Point Humidity Pressure Visibility Wind Dir Wind Speed Gust Speed Precip Events Conditions
12:53 AM 46.0 °F 43.9 °F 44.1 °F 93% 30.21 in 10.0 mi SSW 4.6 mph - N/A   Clear
1:53 AM 48.9 °F - 46.0 °F 90% 30.22 in 10.0 mi Calm Calm - N/A   Scattered Clouds
2:53 AM 50.0 °F - 48.0 °F 93% 30.22 in 10.0 mi South 5.8 mph - N/A   Overcast
3:53 AM 50.0 °F - 48.0 °F 93% 30.20 in 10.0 mi South 4.6 mph - N/A   Overcast
4:53 AM 50.0 °F - 48.0 °F 93% 30.21 in 10.0 mi Calm Calm - N/A   Mostly Cloudy
5:53 AM 50.0 °F - 48.0 °F 93% 30.22 in 10.0 mi Calm Calm - N/A   Mostly Cloudy
6:53 AM 50.0 °F - 48.0 °F 93% 30.23 in 10.0 mi Calm Calm - N/A   Overcast
7:53 AM 48.9 °F - 48.0 °F 97% 30.25 in 10.0 mi South 3.5 mph - N/A   Overcast
8:53 AM 52.0 °F - 50.0 °F 93% 30.26 in 10.0 mi South 3.5 mph - N/A   Overcast
9:53 AM 55.9 °F - 52.0 °F 87% 30.26 in 10.0 mi South 3.5 mph - N/A   Overcast
10:53 AM 57.9 °F - 53.1 °F 84% 30.26 in 10.0 mi SSE 6.9 mph - N/A   Overcast
11:53 AM 59.0 °F - 53.1 °F 81% 30.25 in 10.0 mi SE 6.9 mph - N/A   Overcast
12:53 PM 61.0 °F - 53.1 °F 75% 30.23 in 10.0 mi SE 10.4 mph - N/A   Scattered Clouds
1:53 PM 62.1 °F - 54.0 °F 75% 30.22 in 10.0 mi SSE 6.9 mph - N/A   Overcast
2:53 PM 62.1 °F - 53.1 °F 72% 30.19 in 10.0 mi SE 8.1 mph - N/A   Mostly Cloudy
3:53 PM 63.0 °F - 53.1 °F 70% 30.19 in 10.0 mi SE 5.8 mph - N/A   Scattered Clouds
4:53 PM 61.0 °F - 53.1 °F 75% 30.17 in 10.0 mi SSE 5.8 mph - N/A   Clear
5:53 PM 59.0 °F - 52.0 °F 78% 30.16 in 10.0 mi Calm Calm - N/A   Clear
6:53 PM 59.0 °F - 53.1 °F 81% 30.14 in 10.0 mi Calm Calm - N/A   Overcast
7:53 PM 57.9 °F - 52.0 °F 81% 30.14 in 10.0 mi NNE 6.9 mph - N/A   Overcast
8:53 PM 55.0 °F - 51.1 °F 86% 30.11 in 10.0 mi NNE 4.6 mph - N/A   Mostly Cloudy
9:53 PM 55.0 °F - 50.0 °F 83% 30.09 in 10.0 mi North 3.5 mph - N/A   Partly Cloudy
10:53 PM 55.0 °F - 50.0 °F 83% 30.07 in 10.0 mi Calm Calm - N/A   Clear
11:53 PM 46.9 °F - 46.9 °F 100% 30.04 in 10.0 mi NNW 3.5 mph - N/A   Scattered Clouds